YAHSAT 1A

Last updated on Mon Oct 14 2024 00:02:38 GMT+0000 (Coordinated Universal Time)

1 37393U 11016B 24287.48848104 .00000099 00000+0 00000+0 0 9990 2 37393 0.0182 226.3284 0002072 355.9182 28.6694 1.00270360 36271
UTC large
Height (km)
Speed (km/s)
/
Latitude / Longitude
Inclination (degrees)
Orbital Period (minutes)
Azimuth
Elevation
Range (km)
Doppler Factor

Next 0 passes for location: London (51.5072 / 0.1276)

Sorry there are no passes over London.